Weather in Sviyazhsk

Russia / Republic of Tatarstan     55°46′19″N   48°39′31″E
temp.,
°C
wind,
m/s
gust,
m/s
humid.,
%
clouds,
%
prec.,
mm/h
press.,
hPa
HPBL,
m
14 may, fri
fri1400:00+16se347426 0.0 102159
03:00+15se3378100 0.3 102135
06:00+17se397193 0.3 1021254
09:00+22sse584947 0.3 1020597
12:00+25s684285 0.0 10201003
15:00+24ssw574848 0.0 1020991
18:00+23s37600 0.0 1018253
21:00+18s337499 0.0 101932
15 may, sat
sat1500:00+17s2276100 0.0 101921
03:00+17sse2270100 0.0 101926
06:00+19sse276893 0.0 1019221
09:00+23s5950100 0.1 1018435
12:00+27ssw7103993 0.0 1018866
15:00+28s710417 0.0 10171217
18:00+24s512505 0.0 1017370
21:00+19s413554 0.0 1017212
16 may, sun
sun1600:00+18s416531 0.0 1016271
03:00+16s4115891 0.0 1016178
06:00+18s4115858 0.0 1017275
09:00+23ssw61048100 0.0 1016465
12:00+27ssw7103817 0.0 10161063
15:00+28ssw69405 0.0 10152631
18:00+25ssw35564 0.0 1014134
21:00+20sw226870 0.0 101524
17 may, mon
mon1700:00+17wsw227934 0.0 101616
03:00+16wnw118872 0.0 101713
06:00+18s1178100 0.0 101895
09:00+24ssw235573 0.0 1017548
12:00+27sw3442100 0.0 10171196
15:00+28wsw353879 0.0 10161361
18:00+26n125232 0.0 101667
21:00+21nnw125786 0.5 101738
18 may, tue
tue1800:00+18sw226385 0.0 101712
03:00+17s126636 0.0 101711
06:00+20se125896 0.0 101777
09:00+25sse2346100 0.0 1016478
12:00+27ssw4537100 0.0 1016861
15:00+28s343299 0.0 10161202
18:00+26sse23497 0.0 101574
21:00+20sse22590 0.0 101618